Location: ??????????
(42.1626°N, 44.1160°E)
Time: 13:11:30
(UTC+00:00)

Cosmos 2360 Rocket - Pass Details

Date: 03 March 2021
Orbit: 832 x 846 km, 71.0° (Epoch: 13 April)

Event Time Altitude Azimuth Distance (km) Brightness Sun altitude
Rises 16:54:56 0° 223° (SW) 3,376 5.7 -22.7°
Reaches altitude 10° 16:57:30 10° 230° (SW) 2,448 5.1 -23.2°
Maximum altitude 17:02:48 42° 301° (WNW) 1,181 3.4 -24.2°
Drops below altitude 10° 17:08:11 10° 12° (NNE) 2,470 4.6 -25.1°
Sets 17:10:46 0° 19° (NNE) 3,411 5.3 -25.6°
